Location: Poughquag
(41.6090°N, 73.6820°W)
Time: 11:35:41
(UTC-04:00)

A-11 Canister half - Pass Details

Date: 30 May 2020
Orbit: 1527 x 1682 km, 47.3° (Epoch: 06 July)

Event Time Altitude Azimuth Distance (km) Brightness Sun altitude
Rises 17:11:16 0° 284° (WNW) 4,806 12.6 33.0°
Reaches altitude 10° 17:18:15 10° 250° (WSW) 3,859 12.3 31.7°
Maximum altitude 17:20:00 11° 239° (WSW) 3,821 12.1 31.4°
Drops below altitude 10° 17:21:46 10° 229° (SW) 3,877 11.9 31.0°
Sets 17:28:57 0° 194° (SSW) 4,893 11.8 29.7°
